• In Russia
  • List of Countries
  • For 7 days
  • Water Temperature
  • Satellite Maps
  • Weather Map
  • Weather Widgets
  • user-avatar
    Login

    Hourly Weather Linz

    Today, 22 February, Friday

    Time Temperature Precipitation Wind Pressure Humidity
    00:00 +5°C° 0 mm 4 mps 741 mmHg 89%
    01:00 +5°C° 0 mm 4 mps 741 mmHg 89%
    02:00 +5°C° 0.2 mm 4 mps 741 mmHg 90%
    03:00 +5°C° 0.2 mm 5 mps 741 mmHg 90%
    04:00 +5°C° 0.2 mm 5 mps 740 mmHg 90%
    05:00 +6°C° 1.3 mm 5 mps 740 mmHg 91%
    06:00 +6°C° 1.3 mm 5 mps 740 mmHg 91%
    07:00 +6°C° 1.3 mm 5 mps 740 mmHg 91%
    08:00 +6°C° 0.5 mm 4 mps 741 mmHg 90%
    09:00 +6°C° 0.5 mm 4 mps 741 mmHg 88%
    10:00 +6°C° 0.5 mm 4 mps 741 mmHg 87%
    11:00 +7°C° 0.2 mm 4 mps 742 mmHg 84%
    12:00 +8°C° 0.2 mm 4 mps 743 mmHg 81%
    13:00 +8°C° 0.2 mm 4 mps 743 mmHg 78%
    14:00 +9°C° 0.2 mm 3 mps 743 mmHg 77%
    15:00 +8°C° 0.2 mm 3 mps 744 mmHg 76%
    16:00 +8°C° 0.2 mm 3 mps 744 mmHg 75%
    17:00 +7°C° 0 mm 3 mps 745 mmHg 76%
    18:00 +4°C° 0 mm 3 mps 746 mmHg 78%
    19:00 +4°C° 0 mm 2 mps 746 mmHg 79%
    20:00 +3°C° 0 mm 2 mps 747 mmHg 78%
    21:00 +1°C° 0 mm 2 mps 747 mmHg 76%
    22:00 +1°C° 0 mm 1 mps 748 mmHg 75%
    23:00 +1°C° 0 mm 1 mps 748 mmHg 75%

    Tomorrow, 23 February, Saturday

    Time Temperature Precipitation Wind Pressure Humidity
    00:00 +1°C° 0 mm 1 mps 749 mmHg 74%
    01:00 0°C° 0 mm 1 mps 749 mmHg 74%
    02:00 0°C° 0 mm 1 mps 749 mmHg 74%
    03:00 0°C° 0 mm 1 mps 749 mmHg 74%
    04:00 -2°C° 0 mm 2 mps 749 mmHg 74%
    05:00 -2°C° 0 mm 2 mps 749 mmHg 73%
    06:00 -2°C° 0 mm 2 mps 749 mmHg 72%
    07:00 -2°C° 0 mm 2 mps 750 mmHg 71%
    08:00 -1°C° 0 mm 2 mps 750 mmHg 60%
    09:00 +1°C° 0 mm 2 mps 750 mmHg 50%
    10:00 +1°C° 0 mm 3 mps 750 mmHg 39%
    11:00 +1°C° 0 mm 3 mps 749 mmHg 36%
    12:00 +2°C° 0 mm 3 mps 749 mmHg 32%
    13:00 +3°C° 0 mm 3 mps 749 mmHg 29%
    14:00 +3°C° 0 mm 3 mps 749 mmHg 30%
    15:00 +4°C° 0 mm 2 mps 748 mmHg 31%
    16:00 +4°C° 0 mm 2 mps 748 mmHg 33%
    17:00 +3°C° 0 mm 2 mps 748 mmHg 38%
    18:00 +1°C° 0 mm 2 mps 749 mmHg 42%
    19:00 -1°C° 0 mm 2 mps 749 mmHg 47%
    20:00 -1°C° 0 mm 2 mps 749 mmHg 47%
    21:00 -1°C° 0 mm 2 mps 749 mmHg 47%
    22:00 -2°C° 0 mm 2 mps 750 mmHg 48%
    23:00 -2°C° 0 mm 2 mps 749 mmHg 47%

    Day after tomorrow, 24 February, Sunday

    Time Temperature Precipitation Wind Pressure Humidity
    00:00 -2°C° 0 mm 2 mps 749 mmHg 46%
    01:00 -2°C° 0 mm 2 mps 749 mmHg 45%
    02:00 0°C° 0 mm 1 mps 749 mmHg 44%
    03:00 0°C° 0 mm 1 mps 749 mmHg 44%
    04:00 0°C° 0 mm 1 mps 748 mmHg 43%
    05:00 0°C° 0 mm 1 mps 749 mmHg 42%
    06:00 0°C° 0 mm 1 mps 749 mmHg 42%
    07:00 0°C° 0 mm 1 mps 749 mmHg 41%
    08:00 +2°C° 0 mm 1 mps 749 mmHg 36%
    09:00 +3°C° 0 mm 1 mps 749 mmHg 31%
    10:00 +5°C° 0 mm 1 mps 749 mmHg 27%
    11:00 +6°C° 0 mm 1 mps 748 mmHg 26%
    12:00 +7°C° 0 mm 1 mps 748 mmHg 26%
    13:00 +9°C° 0 mm 1 mps 748 mmHg 25%
    14:00 +8°C° 0 mm 0 mps 748 mmHg 31%
    15:00 +7°C° 0 mm 0 mps 748 mmHg 36%
    16:00 +7°C° 0 mm 0 mps 747 mmHg 41%
    17:00 +6°C° 0 mm 0 mps 748 mmHg 44%
    18:00 +5°C° 0 mm 1 mps 748 mmHg 48%
    19:00 +3°C° 0 mm 1 mps 748 mmHg 51%
    20:00 +3°C° 0 mm 1 mps 749 mmHg 53%
    21:00 +3°C° 0 mm 1 mps 749 mmHg 55%
    22:00 +3°C° 0 mm 1 mps 749 mmHg 57%
    23:00 +3°C° 0 mm 1 mps 749 mmHg 58%

    25 February, Monday

    Time Temperature Precipitation Wind Pressure Humidity
    00:00 +3°C° 0 mm 1 mps 750 mmHg 58%
    01:00 +3°C° 0 mm 1 mps 750 mmHg 59%
    02:00 +3°C° 0 mm 1 mps 750 mmHg 61%
    03:00 +3°C° 0 mm 1 mps 749 mmHg 62%
    04:00 +2°C° 0 mm 1 mps 749 mmHg 64%
    05:00 +2°C° 0 mm 1 mps 749 mmHg 66%
    06:00 +2°C° 0 mm 1 mps 750 mmHg 67%
    07:00 +2°C° 0 mm 1 mps 750 mmHg 69%
    08:00 +4°C° 0 mm 1 mps 750 mmHg 64%
    09:00 +6°C° 0 mm 1 mps 750 mmHg 59%
    10:00 +7°C° 0 mm 1 mps 750 mmHg 55%
    11:00 +9°C° 0 mm 1 mps 749 mmHg 53%
    12:00 +10°C° 0 mm 1 mps 749 mmHg 52%
    13:00 +11°C° 0 mm 1 mps 749 mmHg 51%
    14:00 +12°C° 0 mm 1 mps 748 mmHg 53%
    15:00 +12°C° 0 mm 1 mps 748 mmHg 55%
    16:00 +12°C° 0 mm 1 mps 748 mmHg 57%
    17:00 +10°C° 0 mm 1 mps 748 mmHg 63%
    18:00 +8°C° 0 mm 1 mps 748 mmHg 68%
    19:00 +7°C° 0 mm 1 mps 748 mmHg 74%
    20:00 +6°C° 0 mm 1 mps 748 mmHg 75%
    21:00 +6°C° 0 mm 1 mps 748 mmHg 77%
    22:00 +5°C° 0 mm 1 mps 748 mmHg 78%
    23:00 +5°C° 0 mm 1 mps 748 mmHg 79%

    26 February, Tuesday

    Time Temperature Precipitation Wind Pressure Humidity
    00:00 +5°C° 0 mm 1 mps 748 mmHg 79%
    01:00 +4°C° 0 mm 1 mps 747 mmHg 79%
    02:00 +4°C° 0 mm 1 mps 747 mmHg 79%
    03:00 +4°C° 0 mm 1 mps 747 mmHg 79%
    04:00 +4°C° 0 mm 1 mps 747 mmHg 79%
    05:00 +4°C° 0 mm 1 mps 746 mmHg 79%
    06:00 +4°C° 0 mm 1 mps 746 mmHg 79%
    07:00 +3°C° 0 mm 1 mps 746 mmHg 79%
    08:00 +5°C° 0 mm 1 mps 746 mmHg 73%
    09:00 +7°C° 0 mm 1 mps 746 mmHg 67%
    10:00 +9°C° 0 mm 1 mps 745 mmHg 62%
    11:00 +10°C° 0 mm 1 mps 745 mmHg 59%
    12:00 +12°C° 0 mm 2 mps 745 mmHg 56%
    13:00 +13°C° 0 mm 2 mps 744 mmHg 53%
    14:00 +13°C° 0 mm 2 mps 744 mmHg 55%
    15:00 +13°C° 0 mm 2 mps 744 mmHg 57%
    16:00 +13°C° 0 mm 2 mps 743 mmHg 59%
    17:00 +12°C° 0 mm 2 mps 743 mmHg 65%
    18:00 +9°C° 0 mm 2 mps 744 mmHg 71%
    19:00 +7°C° 0 mm 2 mps 744 mmHg 78%
    20:00 +7°C° 0 mm 2 mps 744 mmHg 79%
    21:00 +7°C° 0 mm 2 mps 744 mmHg 80%
    22:00 +6°C° 0 mm 2 mps 744 mmHg 82%
    23:00 +6°C° 0 mm 2 mps 743 mmHg 82%

    27 February, Wednesday

    Time Temperature Precipitation Wind Pressure Humidity
    00:00 +6°C° 0 mm 2 mps 743 mmHg 82%
    01:00 +5°C° 0 mm 2 mps 743 mmHg 82%
    02:00 +5°C° 0 mm 2 mps 743 mmHg 82%
    03:00 +6°C° 0 mm 1 mps 743 mmHg 81%
    04:00 +6°C° 0 mm 1 mps 742 mmHg 81%
    05:00 +6°C° 0 mm 1 mps 743 mmHg 81%
    06:00 +6°C° 0 mm 1 mps 743 mmHg 81%
    07:00 +6°C° 0 mm 1 mps 743 mmHg 81%
    08:00 +8°C° 0 mm 1 mps 743 mmHg 76%
    09:00 +8°C° 0 mm 0 mps 743 mmHg 72%
    10:00 +10°C° 0 mm 0 mps 743 mmHg 67%
    11:00 +11°C° 0 mm 0 mps 742 mmHg 64%
    12:00 +13°C° 0 mm 1 mps 742 mmHg 61%
    13:00 +14°C° 0 mm 1 mps 742 mmHg 58%
    14:00 +14°C° 0 mm 1 mps 741 mmHg 57%
    15:00 +14°C° 0 mm 1 mps 741 mmHg 55%
    16:00 +15°C° 0 mm 1 mps 740 mmHg 54%
    17:00 +13°C° 0 mm 1 mps 740 mmHg 59%
    18:00 +11°C° 0 mm 1 mps 740 mmHg 64%
    19:00 +10°C° 0 mm 1 mps 740 mmHg 69%
    20:00 +9°C° 0 mm 1 mps 740 mmHg 71%
    21:00 +8°C° 0 mm 1 mps 740 mmHg 72%
    22:00 +8°C° 0 mm 1 mps 739 mmHg 74%
    23:00 +7°C° 0 mm 1 mps 739 mmHg 73%
    Show more